Weather History for Gwinn, MI

Change the Weather History Date:

Tuesday, September 25, 2012

  Actual Average (KESC) Record (KESC)
Temperature  
Mean Temperature 44 °F -  
Max Temperature 55 °F 60 °F 75 °F (2007)
Min Temperature 32 °F 44 °F 30 °F (1985)
Degree Days  
Heating Degree Days 22    
Moisture  
Dew Point 37 °F    
Average Humidity 79    
Maximum Humidity 93    
Minimum Humidity 51    
Precipitation  
Precipitation 0.00 in - - ()
Sea Level Pressure  
Sea Level Pressure 29.87 in    
Wind  
Wind Speed 4 mph (North)    
Max Wind Speed 14 mph    
Max Gust Speed -    
Visibility 10 miles    
Events      
Averages and records for this station are not official NWS values.
T = Trace of Precipitation, MM = Missing Value Source: NWS Daily Summary

Daily Weather History Graph

Daily Weather History Graph

Search for Another Location

Airport:

Trip Planner

Search our weather history database for the weather conditions in past years. The results will help you decide how hot, cold, wet, or windy it might be!

Date:

Astronomy

Sep. 25, 2012 Rise Set
Actual Time 7:40 AM EDT 7:40 PM EDT
Civil Twilight 7:10 AM EDT 8:10 PM EDT
Nautical Twilight 6:35 AM EDT 8:45 PM EDT
Astronomical Twilight 5:59 AM EDT 9:21 PM EDT
Moon 5:16 PM EDT (9/25) 2:48 AM EDT (9/25)
Length of Visible Light 12h 59m
Length of Day
11h 59m
Waxing Gibbous, 80% of the Moon is Illuminated
Sep 25
Waxing Gibbous
Sep 29
Full
Oct 8
Last Quarter
Oct 15
New
Oct 21
First Quarter

Hourly Weather History & Observations

Time (EDT) Temp. Windchill Dew Point Humidity Pressure Visibility Wind Dir Wind Speed Gust Speed Precip Events Conditions
12:55 AM 39.6 °F 36.3 °F 36.1 °F 88% 29.81 in 10.0 mi NW 4.6 mph - N/A   Clear
1:16 AM 38.5 °F 34.1 °F 35.1 °F 87% 29.81 in 10.0 mi NNW 5.8 mph - N/A   Clear
1:36 AM 39.7 °F 37.6 °F 36.7 °F 89% 29.81 in 10.0 mi NNW 3.5 mph - N/A   Clear
1:56 AM 39.2 °F 34.2 °F 36.0 °F 88% 29.81 in 10.0 mi North 6.9 mph - N/A   Clear
2:16 AM 39.2 °F - 36.3 °F 89% 29.81 in 10.0 mi Calm Calm - N/A   Clear
2:36 AM 40.5 °F 37.3 °F 37.0 °F 88% 29.82 in 10.0 mi North 4.6 mph - N/A   Clear
2:56 AM 37.9 °F - 34.9 °F 89% 29.82 in 10.0 mi Calm Calm - N/A   Clear
3:16 AM 37.8 °F - 34.9 °F 89% 29.81 in 10.0 mi Calm Calm - N/A   Clear
3:36 AM 36.1 °F 33.5 °F 33.1 °F 89% 29.82 in 10.0 mi West 3.5 mph - N/A   Clear
3:56 AM 36.1 °F - 33.4 °F 90% 29.82 in 10.0 mi Calm Calm - N/A   Clear
4:16 AM 36.5 °F 33.9 °F 33.8 °F 90% 29.82 in 10.0 mi West 3.5 mph - N/A   Clear
4:36 AM 36.9 °F 34.3 °F 34.3 °F 91% 29.82 in 10.0 mi WSW 3.5 mph - N/A   Clear
4:56 AM 34.7 °F - 32.0 °F 90% 29.83 in 10.0 mi Calm Calm - N/A   Clear
5:16 AM 35.6 °F - 33.1 °F 91% 29.83 in 10.0 mi Calm Calm - N/A   Clear
5:35 AM 35.1 °F - 32.5 °F 91% 29.84 in 10.0 mi Calm Calm - N/A   Clear
5:56 AM 35.6 °F - 33.1 °F 91% 29.84 in 10.0 mi Calm Calm - N/A   Clear
6:50 AM 32.0 °F - 30.2 °F 93% 29.85 in 10.0 mi Calm Calm - N/A   Scattered Clouds
8:50 AM 35.6 °F - 33.8 °F 93% 29.86 in 10.0 mi Calm Calm - N/A   Scattered Clouds
9:50 AM 46.4 °F - 39.2 °F 76% 29.88 in 10.0 mi Calm Calm - N/A   Scattered Clouds
10:50 AM 50.0 °F - 39.2 °F 66% 29.89 in 10.0 mi NNE 5.8 mph - N/A   Scattered Clouds
11:50 AM 53.6 °F - 37.4 °F 54% 29.89 in 10.0 mi East 5.8 mph - N/A   Scattered Clouds
12:50 PM 53.6 °F - 37.4 °F 54% 29.89 in 10.0 mi East 4.6 mph - N/A   Mostly Cloudy
1:55 PM 55.4 °F - 37.4 °F 51% 29.87 in 10.0 mi NNE 4.6 mph - N/A   Scattered Clouds
2:50 PM 55.4 °F - 37.4 °F 51% 29.86 in 10.0 mi NE 8.1 mph - N/A   Overcast
3:50 PM 53.6 °F - 37.4 °F 54% 29.86 in 10.0 mi NE 9.2 mph - N/A   Overcast
4:55 PM 51.8 °F - 37.4 °F 58% 29.87 in 10.0 mi NE 13.8 mph - N/A   Overcast
5:55 PM 50.0 °F - 37.4 °F 62% 29.88 in 10.0 mi NE 11.5 mph - N/A   Overcast
6:50 PM 50.0 °F - 37.4 °F 62% 29.89 in 10.0 mi NNE 9.2 mph - N/A   Overcast
7:50 PM 48.2 °F - 39.2 °F 71% 29.90 in 10.0 mi North 4.6 mph - N/A   Overcast
8:50 PM 46.4 °F - 39.2 °F 76% 29.92 in 10.0 mi Calm Calm - N/A   Overcast
9:50 PM 46.4 °F 43.5 °F 39.2 °F 76% 29.94 in 10.0 mi NNW 5.8 mph - N/A   Overcast
10:15 PM 46.4 °F 45.2 °F 41.0 °F 81% 29.94 in 10.0 mi North 3.5 mph - N/A   Overcast
10:36 PM 46.4 °F - 41.0 °F 81% 29.94 in 10.0 mi Calm Calm - N/A   Overcast
10:55 PM 46.4 °F - 41.0 °F 81% 29.94 in 10.0 mi Calm Calm - N/A   Mostly Cloudy
11:16 PM 44.8 °F - 40.3 °F 84% 29.94 in 10.0 mi Calm Calm - N/A   Mostly Cloudy
11:36 PM 43.7 °F 41.1 °F 40.1 °F 87% 29.94 in 10.0 mi WNW 4.6 mph - N/A   Mostly Cloudy
11:55 PM 43.5 °F 40.1 °F 40.1 °F 88% 29.94 in 10.0 mi WNW 5.8 mph - N/A   Mostly Cloudy